Regional Weather Roundup
Issued by NWS Midland/Odessa, TX

Skip options and go directly to product.
Home | Oldest Version | Next Version | Current Version | All | Text Only | Save Text | Print | Product List | Glossary On

Skip product version selection by date and time.   
820
ASUS44 KMAF 282201
RWRMAF
MIDLAND AREA WEATHER ROUNDUP
NATIONAL WEATHER SERVICE MIDLAND TX
500 PM CDT SUN JUN 28 2015

...IN SOUTHWEST TEXAS AND SOUTHEAST NEW MEXICO...

CITY           SKY/WX    TMP DP  RH WIND       PRES   REMARKS
ALPINE         MOSUNNY   86  56  35 NE14      30.19F
ANDREWS        FAIR      92  51  24 S5G16     30.07F
ARTESIA        SUNNY     93  50  22 E8G16     30.06F
BIG SPRING     MOSUNNY   94  52  23 N5G10     30.07F
CARLSBAD       SUNNY     94  51  23 VRB7      30.05F
DRYDEN           N/A     90  65  43 SE9       30.00F
FORT STOCKTON  MOSUNNY   88  58  36 SE9G16    30.06F
GUAD PASS      SUNNY     81  47  30 E14G28      N/A
HOBBS          MOSUNNY   90  50  25 SE7G18    30.09F
MARFA          MOSUNNY  N/A N/A N/A NE17      30.17F
MIDLAND AIRPK  MOSUNNY   94  51  23 E8        30.06F
MIDLAND INTL   MOSUNNY   92  52  25 VRB6      30.05F
ODESSA         SUNNY     91  50  24 VRB7      30.06F
PECOS          SUNNY     92  49  22 E12G20    30.04F
PRESIDIO       FAIR      93  55  27 NE7       30.00F
SEMINOLE       PTSUNNY   95  51  22 N3        30.09F
SNYDER         MOSUNNY   88  59  37 CALM      30.06F
WINK           SUNNY     91  56  30 SE14G21   30.03F
$$
...OTHER STATIONS IN TEXAS...

CITY           SKY/WX    TMP DP  RH WIND       PRES   REMARKS
ABILENE        MOSUNNY   93  55  27 W3        30.01F
AMARILLO       SUNNY     93  53  25 W6        30.03F
AUSTIN         CLOUDY    84  76  76 E3        29.97S
BROWNSVILLE    PTSUNNY   88  75  65 SE17      29.97F
CORPUS CHRISTI PTSUNNY   88  74  63 S14G21    29.96F
DALLAS FTW     MOSUNNY   92  57  30 VRB3      29.97F
DEL RIO        MOSUNNY   90  71  53 SE12      29.95F
EL PASO        MOSUNNY   94  46  19 S13       30.06F
HOUSTON INT    CLOUDY    84  71  65 NE6       29.97F
LUBBOCK        PTSUNNY   88  58  36 CALM      30.06F
SAN ANGELO     SUNNY     91  64  40 CALM      30.02F
SAN ANTONIO    PTSUNNY   90  70  51 S13       29.97F
WACO           MOSUNNY   91  63  39 CALM      29.97F
WICHITA FALLS  NOT AVBL
$$
...OTHER LOCATIONS IN NEW MEXICO...

CITY           SKY/WX    TMP DP  RH WIND       PRES   REMARKS
ALAMAGORDO     MOSUNNY   91  52  25 SW6       30.09F
ALBUQUERQUE    PTSUNNY   91  43  18 VRB3      30.16F
CANNON AFB     SUNNY     91  52  25 NW9       30.09F
CLOVIS         MOSUNNY   88  55  33 SE9G16    30.10
HOLLOMAN AFB   SUNNY     92  52  25 VRB5      30.06F
ROSWELL        SUNNY     94  51  23 W7        30.05F
RUIDOSO        PTSUNNY   75  48  38 S7        30.33F
SANTA FE       PTSUNNY   84  43  23 E21G29    30.24S
TRUTH OR CONSE SUNNY     91  49  23 E8G16     30.13F
TUCUMCARI      PTSUNNY   93  46  19 NW5       30.05F
$$

USA.gov is the U.S. government's official web portal to all federal, state and local government web resources and services.